This is the latest recevied weather packets stored in our database for station/object SV4FHR-2. If no packets are shown the sender has not sent any weather packets the latest 10 day(s).
| Time | Temp. | Humidity | Pressure | Rain* | Wind** | Luminosity | Snow |
|---|---|---|---|---|---|---|---|
| 1777837165 | 8.33° C | 85% | 1016.8 hPa | 0 mm | - | - | - |
| 1777836865 | 7.78° C | 86% | 1016.8 hPa | 0 mm | - | - | - |
| 1777836564 | 7.78° C | 86% | 1016.8 hPa | 0 mm | - | - | - |
| 1777836264 | 7.78° C | 86% | 1016.7 hPa | 0 mm | - | - | - |
| 1777835964 | 7.78° C | 87% | 1016.8 hPa | 0 mm | - | - | - |
| 1777835663 | 8.33° C | 86% | 1016.6 hPa | 0 mm | - | - | - |
| 1777835363 | 8.33° C | 86% | 1016.7 hPa | 0 mm | - | - | - |
| 1777835065 | 8.33° C | 86% | 1016.6 hPa | 0 mm | - | - | - |
| 1777834764 | 8.33° C | 85% | 1016.8 hPa | 0 mm | - | - | - |
| 1777834464 | 8.33° C | 85% | 1016.6 hPa | 0 mm | - | - | - |
| 1777834164 | 8.89° C | 85% | 1016.5 hPa | 0 mm | - | - | - |
| 1777833864 | 8.89° C | 84% | 1016.4 hPa | 0 mm | - | - | - |
| 1777833564 | 8.89° C | 84% | 1016.5 hPa | 0 mm | - | - | - |
| 1777833264 | 8.89° C | 84% | 1016.3 hPa | 0 mm | - | - | - |
| 1777832963 | 8.89° C | 85% | 1016.4 hPa | 0 mm | - | - | - |
| 1777832664 | 9.44° C | 84% | 1016.4 hPa | 0 mm | - | - | - |
| 1777832364 | 9.44° C | 65% | 1016.4 hPa | 0 mm | - | - | - |
| 1777832064 | 10.56° C | 26% | 1016.2 hPa | 0 mm | - | - | - |
| 1777831764 | 10.56° C | 79% | 1016.3 hPa | 0 mm | - | - | - |
| 1777831464 | 10.56° C | 79% | 1016.1 hPa | 0 mm | - | - | - |
| 1777831164 | 10.56° C | 78% | 1016.3 hPa | 0 mm | - | - | - |
| 1777830863 | 10.56° C | 77% | 1016.4 hPa | 0 mm | - | - | - |
| 1777830563 | 10.56° C | 77% | 1016.2 hPa | 0 mm | - | - | - |
| 1777830263 | 11.11° C | 75% | 1016 hPa | 0 mm | - | - | - |
| 1777829963 | 11.11° C | 75% | 1016.1 hPa | 0 mm | - | - | - |
* Rain latest hour (hover to see other rain measurements)
** Current wind speed in m/s (hover to see current wind gust speed)